Theta_e
316 318 321 323 326 330 332 337 338 336 340 336 335 338 341 349 349 352 353 352 350 348 351 349 346 353 346 343 346 342 343 346 350 346 344 345 350 346 347 348 347 346 347
313 316 318 321 325 328 330 333 333 335 337 331 335 341 336 339 341 348 352 352 352 349 351 347 346 347 344 345 345 345 341 345 349 344 342 335 340 345 346 345 344 345 349
311 315 316 319 323 325 327 328 331 328 332 336 329 329 331 332 334 333 335 349 354 347 346 346 346 346 342 340 344 347 345 341 347 349 342 335 331 339 344 343 342 345 344
312 315 316 318 322 322 324 327 330 330 325 336 331 330 326 325 328 330 333 339 352 352 348 344 347 344 345 342 342 347 345 348 344 347 347 346 345 335 333 343 343 343 343
311 312 313 316 318 321 323 326 328 330 333 331 330 331 331 331 329 330 331 335 343 347 352 351 347 347 345 344 347 343 347 350 346 345 346 345 343 345 337 330 335 339 341
310 312 315 317 318 319 320 325 328 331 333 332 330 326 332 331 329 327 332 332 332 337 337 351 349 348 348 349 349 348 353 350 348 347 345 345 339 337 337 334 332 332 335
308 310 312 315 317 317 320 323 324 327 331 331 332 329 329 331 330 331 330 327 327 334 336 343 351 351 350 350 353 348 353 350 347 344 347 349 345 343 339 337 333 332 333
308 310 312 315 315 318 320 321 323 326 328 329 329 332 330 328 327 328 329 329 327 328 336 340 338 349 350 353 352 352 351 349 349 349 351 349 347 346 342 340 335 329 329
310 309 311 313 316 317 322 323 323 324 327 325 326 330 330 331 327 328 331 331 333 332 331 332 344 343 347 341 334 333 344 348 350 352 350 351 348 346 345 343 339 333 322
308 308 311 314 315 316 320 324 324 322 322 325 326 322 325 329 328 329 328 329 330 332 332 332 336 338 353 345 337 338 348 349 349 352 351 349 347 348 345 343 339 337 330
307 308 310 313 313 315 314 320 321 321 321 323 325 326 323 323 325 326 327 330 331 331 331 331 330 334 347 352 354 351 350 349 350 351 348 348 349 346 344 342 341 334 333
308 309 310 312 312 313 314 316 322 319 320 322 321 321 326 325 325 325 327 330 331 333 332 331 331 330 337 348 352 351 352 350 349 348 348 348 349 347 345 343 339 334 335
308 309 310 311 312 312 314 314 317 317 318 318 318 321 322 322 322 325 326 327 328 330 333 332 332 332 333 334 349 352 351 349 349 349 349 348 345 344 342 341 338 336 336
309 309 310 310 313 314 314 314 315 317 317 316 317 320 322 321 319 323 326 326 327 326 328 333 334 334 336 335 344 351 350 349 348 350 350 347 344 344 342 340 338 337 334
307 309 309 312 314 314 316 315 316 316 317 316 314 318 320 320 319 319 320 323 324 325 326 329 335 336 336 337 344 349 349 348 347 349 348 346 343 336 340 339 338 336 333
307 309 310 311 312 314 314 315 317 317 318 316 315 316 316 315 316 318 317 318 318 324 326 327 332 333 337 320 318 341 349 347 346 347 347 341 327 321 316 316 317 333 334
307 308 309 311 314 314 316 315 317 317 316 316 315 315 315 313 314 314 314 315 316 319 324 326 329 335 338 317 311 321 348 346 346 345 342 337 336 329 326 314 316 313 315
307 308 310 312 314 315 315 315 315 316 316 315 315 314 313 311 311 312 312 313 313 314 316 324 328 334 337 315 307 316 346 345 345 345 344 339 336 336 334 330 330 330 326
308 309 311 311 312 312 312 313 313 313 313 313 313 313 313 310 309 310 310 312 312 311 313 319 327 333 336 307 307 322 344 343 343 344 342 340 336 315 313 332 329 329 323
309 308 309 311 310 312 314 312 310 310 312 311 311 312 312 311 310 310 310 310 310 311 312 315 326 328 337 304 306 329 343 340 340 339 334 317 332 305 309 332 331 328 328
307 308 308 308 309 310 310 307 307 306 310 312 311 311 311 311 310 309 310 309 309 310 313 317 328 334 337 320 306 318 341 340 336 335 331 325 304 303 302 310 332 327 329
306 306 305 306 307 308 307 305 304 307 309 308 308 307 307 308 308 307 307 306 309 311 315 322 330 336 335 315 308 314 323 323 334 333 334 314 298 298 299 312 305 306 317
302 304 304 305 306 306 305 303 304 307 307 306 305 306 306 305 306 306 305 306 311 313 318 326 330 333 333 318 305 306 311 312 333 335 316 298 297 298 302 299 300 304 326
301 302 302 301 302 304 304 305 306 306 306 306 306 308 312 307 305 307 308 309 316 318 324 329 330 332 326 323 322 316 314 306 310 306 308 309 310 312 311 312 311 325 326
299 301 300 299 300 301 302 305 306 307 306 309 312 314 309 307 305 306 309 317 324 326 330 332 333 328 326 327 320 323 328 328 318 318 321 322 323 322 323 323 323 325 325
298 297 297 297 299 302 304 305 307 308 310 312 320 320 315 314 312 315 314 297 310 307 309 312 326 329 314 305 304 303 304 304 306 323 323 323 323 322 321 323 324 325 321
Wind_Speed
14 13 6 8 7 6 4 4 6 3 4 7 5 2 3 3 3 4 7 6 5 6 6 6 6 4 4 5 5 3 5 6 4 3 5 5 6 7 5 5 5 6 7
15 14 14 12 8 6 5 1 3 6 3 4 3 2 1 2 3 1 3 8 8 7 6 8 7 7 6 6 4 5 5 8 6 4 4 3 4 5 7 4 4 5 4
15 15 19 15 11 8 4 4 1 3 2 3 2 3 1 1 3 2 3 5 5 9 10 9 9 7 9 8 7 6 8 7 5 9 5 3 4 1 3 5 4 6 3
8 7 14 15 11 5 7 3 2 3 3 3 3 6 4 3 2 4 4 6 8 8 11 13 12 12 7 8 7 6 9 9 10 4 8 5 1 1 0 2 5 4 3
7 10 6 4 7 5 2 6 4 2 1 4 2 2 3 3 3 4 6 5 6 6 8 11 13 11 8 10 8 10 9 6 5 9 4 5 5 4 3 4 3 3 4
10 11 11 10 5 7 10 6 4 4 4 5 3 6 5 4 3 3 4 3 4 9 13 14 11 11 10 10 8 8 7 9 5 9 14 4 4 4 4 5 5 7 3
9 8 9 13 12 13 8 5 7 7 7 6 6 6 6 6 7 4 5 7 4 7 13 11 9 10 10 11 8 8 7 8 11 11 10 7 5 4 4 5 4 2 1
8 10 11 11 11 7 10 9 5 6 6 6 6 6 7 5 4 6 6 6 7 8 10 11 11 10 11 9 7 6 9 9 12 18 8 7 4 3 4 3 3 2 2
7 7 5 1 6 8 8 8 8 6 4 6 8 6 6 6 6 8 6 6 8 9 12 13 11 7 9 10 9 7 11 12 17 11 10 9 4 5 5 3 4 4 2
9 8 8 10 7 7 8 9 10 11 10 10 7 7 8 8 7 8 10 10 10 8 9 12 12 9 9 10 9 11 15 14 13 10 11 9 6 5 4 4 3 4 3
11 9 10 10 11 7 12 9 12 13 12 7 7 7 8 10 10 8 8 9 9 10 10 13 15 13 9 11 12 15 15 17 16 11 11 12 9 5 4 4 4 3 2
14 13 11 9 9 9 13 9 7 8 7 5 6 7 5 7 9 10 11 11 11 10 12 13 15 16 14 9 13 16 16 17 14 12 12 13 8 7 6 4 5 4 2
10 10 10 10 11 12 11 10 9 10 10 10 10 7 6 6 12 10 11 12 12 12 13 15 16 18 16 15 14 16 16 13 13 13 16 10 10 8 5 4 4 4 3
12 13 10 11 9 10 10 10 10 7 4 11 11 6 5 6 9 11 10 12 14 15 14 18 18 18 17 16 18 15 14 13 13 16 13 9 10 9 8 6 5 3 3
15 12 8 8 7 9 11 12 12 10 10 6 5 9 6 6 10 13 12 13 14 15 16 18 19 17 17 14 18 16 16 15 16 16 11 9 10 12 10 5 5 6 4
13 15 12 12 11 13 14 8 8 8 8 11 11 9 9 7 9 9 12 13 16 18 17 18 20 17 13 19 18 17 15 16 20 13 11 6 12 12 14 12 8 4 5
14 14 14 14 11 11 10 11 13 12 14 14 13 13 13 12 10 11 14 16 17 17 18 17 19 20 18 19 20 21 15 15 16 12 10 9 8 11 9 8 10 9 8
13 14 14 13 12 14 12 12 14 16 16 15 15 15 13 11 13 14 15 16 16 16 18 18 19 21 16 17 20 22 16 14 14 12 10 9 11 9 10 9 7 7 6
18 17 15 16 18 17 17 16 16 17 19 18 19 19 19 15 13 15 17 16 15 17 18 20 18 22 17 14 21 20 15 13 15 12 10 8 11 12 9 9 8 6 6
17 17 19 20 21 19 13 16 19 21 20 19 20 19 18 18 18 18 19 16 18 20 18 22 20 25 18 16 21 19 13 15 10 10 7 10 12 14 12 4 6 7 8
22 22 22 21 20 17 16 20 19 19 19 11 10 9 12 16 17 20 19 17 18 20 21 21 20 22 15 14 17 22 14 12 11 9 7 4 15 13 11 4 5 5 8
23 23 22 21 19 20 18 21 22 20 15 17 19 22 23 20 19 25 20 21 20 21 20 22 16 15 11 14 10 17 15 15 11 10 8 8 15 12 10 7 9 11 10
21 24 22 21 19 19 18 22 23 20 19 23 30 31 33 30 26 23 21 19 20 18 18 15 14 11 10 8 10 12 19 15 10 10 12 17 16 14 9 9 10 9 4
20 20 21 22 20 17 18 19 18 19 21 28 35 33 28 30 28 18 15 14 15 16 17 15 14 12 12 9 8 10 12 18 13 18 13 10 9 6 9 5 4 3 3
17 17 16 17 20 20 21 18 19 19 23 24 24 6 10 19 20 17 15 15 19 16 16 15 14 15 14 13 13 14 12 12 14 14 10 8 7 7 6 6 6 4 4
17 18 20 19 20 20 21 19 20 14 19 18 6 4 8 10 11 10 5 12 11 17 19 18 17 10 19 21 17 18 23 24 19 10 9 8 7 7 6 6 6 5 5
Wind_Direction
243 170 160 133 127 97 43 223 150 187 178 197 168 161 159 186 219 198 216 254 212 226 201 203 229 252 232 239 229 180 234 263 249 255 272 258 221 211 209 210 212 217 232
226 182 172 159 157 153 154 47 187 140 251 223 139 131 245 215 185 77 204 232 196 196 193 210 206 202 225 247 231 242 227 232 230 235 233 288 280 207 205 207 234 248 202
236 206 176 164 159 156 182 193 125 18 180 306 165 103 327 295 332 239 241 238 202 190 211 219 205 208 207 230 211 212 230 242 236 215 210 246 235 39 152 217 230 238 207
238 266 170 151 149 177 157 259 229 136 326 313 281 136 199 190 186 260 235 240 231 223 195 217 207 207 213 222 226 223 223 215 246 248 218 233 266 275 153 215 222 239 196
201 132 140 183 172 170 263 182 236 299 281 295 321 270 185 235 187 231 251 257 288 261 247 211 206 209 190 236 197 231 227 219 225 274 271 211 220 196 202 267 223 224 209
189 185 190 172 158 227 208 203 194 210 227 263 261 299 272 240 235 231 286 273 250 256 253 230 210 200 209 220 218 231 244 200 217 245 266 231 167 189 203 228 243 209 223
205 200 182 171 189 209 193 215 208 232 196 194 225 231 266 267 276 252 238 250 219 263 243 238 212 196 196 216 198 225 222 208 230 238 234 261 195 157 209 216 244 228 214
251 214 201 192 209 209 181 199 223 246 236 240 213 200 211 231 254 257 252 255 265 252 266 244 227 208 189 179 199 214 224 225 238 227 217 243 215 181 219 211 143 301 228
234 255 190 263 248 250 206 187 191 228 242 245 270 268 233 224 220 228 247 257 237 236 242 264 280 224 212 193 191 227 252 233 238 228 221 233 193 220 219 150 154 177 237
218 240 231 223 230 247 257 196 198 203 214 228 219 252 275 255 239 235 235 240 252 263 282 291 297 275 227 196 206 238 242 241 235 220 204 215 216 240 183 172 206 205 149
229 249 242 234 243 262 247 222 205 213 207 203 217 234 243 269 283 272 267 258 250 256 258 268 273 277 261 211 208 221 229 229 220 202 196 211 202 213 178 188 221 183 158
237 245 260 269 278 263 259 246 222 228 216 219 234 239 283 294 261 266 271 273 263 252 245 255 263 261 260 254 221 229 222 219 204 200 210 203 191 212 179 186 221 175 198
246 262 271 276 255 252 255 256 240 233 225 220 223 203 212 260 264 252 266 276 276 275 272 249 250 253 245 245 235 223 219 211 198 205 215 186 183 196 174 195 204 160 167
262 260 257 262 262 261 267 269 267 263 250 225 256 221 220 239 279 289 273 253 261 262 261 270 243 244 249 234 236 217 219 214 200 213 205 180 190 183 169 183 209 139 163
267 275 280 278 280 282 280 262 259 256 254 244 191 248 230 247 242 259 265 281 265 261 263 265 262 246 239 236 233 207 211 210 214 205 185 181 190 170 173 171 185 174 170
287 264 253 259 260 242 248 245 264 297 274 254 254 257 253 254 266 270 278 277 278 273 256 259 267 245 231 234 226 194 203 206 212 184 185 141 127 117 115 103 101 159 168
283 309 312 317 328 319 319 324 305 276 264 252 248 247 243 238 252 268 276 268 266 271 265 254 257 251 238 230 216 184 198 203 197 171 170 157 143 139 126 109 109 91 91
324 319 312 305 290 281 286 281 278 274 266 257 253 252 248 240 247 254 251 260 267 267 275 260 254 253 239 225 207 182 188 195 185 163 165 166 148 157 155 155 157 152 159
321 319 313 303 293 281 277 271 266 263 258 246 245 244 242 233 235 250 250 248 258 266 266 269 255 249 238 211 194 170 172 183 179 159 163 151 152 160 151 156 170 168 127
303 300 294 290 285 280 278 270 266 261 251 249 247 242 234 236 239 243 246 250 255 256 257 259 252 247 230 197 182 164 165 178 162 152 143 156 160 161 149 174 174 157 153
300 296 290 287 293 292 286 284 286 285 285 272 269 265 236 228 235 244 239 240 246 250 246 246 246 238 207 193 179 154 160 165 152 149 148 118 146 147 135 134 86 127 131
300 300 299 298 300 295 291 288 284 284 276 273 263 250 244 241 244 234 231 240 239 237 237 241 232 226 174 161 194 134 156 149 150 153 147 131 120 115 128 116 131 134 126
308 300 296 291 289 296 296 290 285 286 290 289 272 256 241 224 218 221 226 226 225 223 225 224 213 182 153 138 137 121 151 144 150 143 130 124 120 122 98 123 139 145 155
297 302 298 291 292 289 289 288 302 296 284 274 277 277 263 204 193 199 209 224 214 211 218 202 174 157 145 142 117 117 102 93 91 103 111 127 133 134 121 123 155 176 189
300 295 303 304 299 298 292 290 284 280 279 279 288 350 70 127 165 191 206 213 214 204 196 165 154 144 151 149 137 132 123 122 116 109 121 140 143 141 147 159 168 183 133
302 297 290 289 289 289 286 290 272 260 271 289 292 128 106 124 156 174 151 24 215 174 142 156 146 139 124 124 123 112 114 119 128 129 148 149 152 139 155 162 158 161 155